Regional Weather Roundup
Issued by NWS

Home | Current Version | Previous Version | Graphics & Text | Print | Product List | Glossary On
Versions: 1 2 3 4 5 6 7 8 9 10 11 12 13 14 15 16 17 18 19 20 21 22 23 24 25 26 27 28 29 30 31 32 33 34 35 36 37 38 39 40 41 42 43 44 45 46 47 48 49 50
000
ASUS45 KCYS 240110
RWRWY

WYOMING REGIONAL WEATHER ROUNDUP
NATIONAL WEATHER SERVICE CHEYENNE WY
600 PM MST SUN NOV 23 2014

NOTE:  "FAIR" INDICATES FEW OR NO CLOUDS BELOW 12,000 FEET
WITH NO SIGNIFICANT WEATHER AND/OR OBSTRUCTIONS TO VISIBILITY.

WYZ001-240200-
YELLOWSTONE NATIONAL PARK

CITY           SKY/WX    TMP DP  RH WIND       PRES   REMARKS
LK YELLOWSTONE   N/A     20  13  74 VRB5      29.98F WCI  13
W YELLOWSTONE  NOT AVBL

$$
WYZ002>013-054>058-071-098>099-240200-
NORTHERN WYOMING

CITY           SKY/WX    TMP DP  RH WIND       PRES   REMARKS
JACKSON        CLOUDY    25  25 100 SE14      30.03F BLWGSNOWWCI  13
CODY           PTCLDY    34   9  35 W6G16     29.88R WCI  29
GREYBULL       PTCLDY    29  18  63 W12       29.89S WCI  19
WORLAND        CLEAR     26  17  68 S12       29.91S WCI  16
SHERIDAN       MOCLDY    31  16  54 W10       29.85S WCI  22
BUFFALO          N/A     33   8  35 NW21G30   29.83S WCI  21
GILLETTE       NOT AVBL
HULETT           N/A    N/A N/A N/A MISG        N/A
NEWCASTLE      FAIR      30  23  74 NW17G23   29.78S WCI  18

$$
WYZ014>020-022>026-101>103-240200-
CENTRAL WYOMING

CITY           SKY/WX    TMP DP  RH WIND       PRES   REMARKS
BIG PINEY      PTCLDY    36  12  37 NW13      30.02F WCI  27
PINEDALE       PTCLDY    18  10  73 NW13      30.01S WCI   4
DUBOIS         FAIR      23  10  58 W29G39    29.92S WCI   6
LANDER         NOT AVBL
RIVERTON       CLEAR     29  13  51 NW23      29.92S WCI  15
CASPER         CLEAR     23  14  68 SW9       29.89S WCI  13
DOUGLAS        PTCLDY   N/A N/A N/A NW9       29.87S

$$
WYZ021-027>030-104>119-240200-
SOUTHERN WYOMING

CITY           SKY/WX    TMP DP  RH WIND       PRES   REMARKS
EVANSTON       CLOUDY    23  18  81 SW12      30.14R WCI  12
FORT BRIDGER   FAIR      21  16  81 S9        30.14R WCI  11
ROCK SPRINGS   CLEAR     23  12  62 W24G33    30.03R WCI   7
DIXON          FAIR      23  11  60 W13       30.02R WCI  11
RAWLINS        CLEAR     21  10  62 W10G21    29.93R WCI  10
SARATOGA       FAIR      21  14  73 W9        29.94R WCI  11
LARAMIE        MOCLDY    18  15  88 NW8       29.85R WCI   8
CHEYENNE       MOCLDY    26  16  65 NW17G28   29.85R WCI  13
TORRINGTON     PTCLDY    30  23  75 W12       29.84R WCI  20
PINE BLUFFS    FAIR      30  16  55 NW16G22   29.86R WCI  19

$$



USA.gov is the U.S. government's official web portal to all federal, state and local government web resources and services.